When you browse on this site, cookies collect data to enhance your experience and personalize the content and advertising you see.
Visit our Privacy Policy to learn more. By continuing to use the site, you agree to this use of cookies and data.

Hourly Weather Zacatecas

Today, 23 September, Wednesday

Time Temperature Precipitation Wind Pressure Humidity
00:00 +13°C° 0 mm 1 mps 589 mmHg 55%
01:00 +13°C° 0 mm 1 mps 589 mmHg 56%
02:00 +12°C° 0 mm 0 mps 588 mmHg 57%
03:00 +12°C° 0 mm 1 mps 588 mmHg 56%
04:00 +12°C° 0 mm 1 mps 588 mmHg 55%
05:00 +12°C° 0 mm 1 mps 588 mmHg 54%
06:00 +14°C° 0 mm 1 mps 589 mmHg 48%
07:00 +16°C° 0 mm 2 mps 590 mmHg 41%
08:00 +18°C° 0 mm 3 mps 592 mmHg 35%
09:00 +20°C° 0 mm 3 mps 592 mmHg 32%
10:00 +21°C° 0 mm 4 mps 592 mmHg 28%
11:00 +22°C° 0 mm 5 mps 592 mmHg 24%
12:00 +23°C° 0 mm 5 mps 592 mmHg 24%
13:00 +23°C° 0 mm 5 mps 592 mmHg 23%
14:00 +25°C° 0 mm 4 mps 591 mmHg 22%
15:00 +23°C° 0 mm 4 mps 591 mmHg 26%
16:00 +22°C° 0 mm 4 mps 590 mmHg 29%
17:00 +21°C° 0 mm 4 mps 589 mmHg 33%
18:00 +19°C° 0 mm 3 mps 589 mmHg 34%
19:00 +17°C° 0 mm 3 mps 589 mmHg 36%
20:00 +15°C° 0 mm 2 mps 589 mmHg 38%
21:00 +14°C° 0 mm 2 mps 588 mmHg 40%
22:00 +14°C° 0 mm 2 mps 588 mmHg 42%
23:00 +13°C° 0 mm 1 mps 588 mmHg 45%

Tomorrow, 24 September, Thursday

Time Temperature Precipitation Wind Pressure Humidity
00:00 +13°C° 0 mm 1 mps 588 mmHg 47%
01:00 +12°C° 0 mm 1 mps 587 mmHg 49%
02:00 +12°C° 0 mm 1 mps 587 mmHg 51%
03:00 +12°C° 0 mm 1 mps 587 mmHg 52%
04:00 +11°C° 0 mm 1 mps 586 mmHg 54%
05:00 +11°C° 0 mm 1 mps 586 mmHg 55%
06:00 +13°C° 0 mm 1 mps 588 mmHg 49%
07:00 +16°C° 0 mm 1 mps 589 mmHg 42%
08:00 +19°C° 0 mm 1 mps 591 mmHg 35%
09:00 +20°C° 0 mm 2 mps 591 mmHg 33%
10:00 +21°C° 0 mm 3 mps 592 mmHg 31%
11:00 +22°C° 0 mm 4 mps 592 mmHg 29%
12:00 +23°C° 0 mm 4 mps 592 mmHg 27%
13:00 +23°C° 0 mm 4 mps 591 mmHg 26%
14:00 +25°C° 0 mm 4 mps 591 mmHg 25%
15:00 +24°C° 0 mm 3 mps 590 mmHg 29%
16:00 +22°C° 0 mm 3 mps 590 mmHg 32%
17:00 +22°C° 0 mm 3 mps 589 mmHg 35%
18:00 +20°C° 0 mm 2 mps 589 mmHg 38%
19:00 +18°C° 0 mm 2 mps 589 mmHg 40%
20:00 +17°C° 0 mm 2 mps 589 mmHg 43%
21:00 +16°C° 0 mm 2 mps 589 mmHg 44%
22:00 +16°C° 0 mm 2 mps 589 mmHg 44%
23:00 +15°C° 0 mm 2 mps 589 mmHg 45%

Day after tomorrow, 25 September, Friday

Time Temperature Precipitation Wind Pressure Humidity
00:00 +15°C° 0 mm 1 mps 588 mmHg 48%
01:00 +14°C° 0 mm 1 mps 588 mmHg 51%
02:00 +13°C° 0 mm 1 mps 587 mmHg 54%
03:00 +13°C° 0 mm 1 mps 587 mmHg 56%
04:00 +13°C° 0 mm 1 mps 587 mmHg 59%
05:00 +11°C° 0 mm 0 mps 587 mmHg 61%
06:00 +13°C° 0 mm 0 mps 588 mmHg 55%
07:00 +16°C° 0 mm 0 mps 590 mmHg 48%
08:00 +18°C° 0 mm 0 mps 592 mmHg 42%
09:00 +22°C° 0 mm 1 mps 592 mmHg 38%
10:00 +23°C° 0 mm 1 mps 592 mmHg 34%
11:00 +24°C° 0 mm 1 mps 592 mmHg 29%
12:00 +24°C° 0 mm 1 mps 592 mmHg 29%
13:00 +24°C° 0 mm 1 mps 591 mmHg 29%
14:00 +24°C° 0 mm 1 mps 591 mmHg 29%
15:00 +24°C° 0 mm 1 mps 590 mmHg 34%
16:00 +24°C° 0 mm 1 mps 590 mmHg 38%
17:00 +23°C° 0 mm 1 mps 590 mmHg 42%
18:00 +22°C° 0 mm 1 mps 590 mmHg 44%
19:00 +20°C° 0 mm 1 mps 590 mmHg 46%
20:00 +19°C° 0 mm 1 mps 589 mmHg 47%
21:00 +19°C° 0 mm 1 mps 589 mmHg 49%
22:00 +18°C° 0 mm 1 mps 590 mmHg 51%
23:00 +16°C° 0 mm 0 mps 590 mmHg 53%

26 September, Saturday

Time Temperature Precipitation Wind Pressure Humidity
00:00 +16°C° 0 mm 1 mps 589 mmHg 54%
01:00 +15°C° 0 mm 1 mps 588 mmHg 55%
02:00 +14°C° 0 mm 1 mps 588 mmHg 56%
03:00 +14°C° 0 mm 1 mps 588 mmHg 57%
04:00 +13°C° 0 mm 1 mps 588 mmHg 57%
05:00 +13°C° 0 mm 1 mps 588 mmHg 58%
06:00 +15°C° 0 mm 1 mps 589 mmHg 52%
07:00 +19°C° 0 mm 1 mps 590 mmHg 46%
08:00 +21°C° 0 mm 1 mps 591 mmHg 40%
09:00 +22°C° 0 mm 1 mps 592 mmHg 37%
10:00 +23°C° 0 mm 2 mps 592 mmHg 33%
11:00 +24°C° 0 mm 2 mps 592 mmHg 30%
12:00 +25°C° 0 mm 3 mps 592 mmHg 30%
13:00 +25°C° 0 mm 3 mps 591 mmHg 29%
14:00 +25°C° 0 mm 3 mps 591 mmHg 29%
15:00 +25°C° 0 mm 3 mps 590 mmHg 32%
16:00 +24°C° 0 mm 3 mps 590 mmHg 35%
17:00 +22°C° 0 mm 3 mps 589 mmHg 39%
18:00 +21°C° 0 mm 2 mps 589 mmHg 40%
19:00 +19°C° 0 mm 2 mps 589 mmHg 42%
20:00 +17°C° 0 mm 2 mps 589 mmHg 43%
21:00 +16°C° 0 mm 1 mps 588 mmHg 46%
22:00 +16°C° 0 mm 1 mps 588 mmHg 49%
23:00 +15°C° 0 mm 1 mps 588 mmHg 52%

27 September, Sunday

Time Temperature Precipitation Wind Pressure Humidity
00:00 +14°C° 0 mm 1 mps 588 mmHg 53%
01:00 +14°C° 0 mm 1 mps 587 mmHg 54%
02:00 +14°C° 0 mm 1 mps 587 mmHg 55%
03:00 +12°C° 0 mm 0 mps 587 mmHg 56%
04:00 +12°C° 0 mm 0 mps 587 mmHg 56%
05:00 +11°C° 0 mm 0 mps 586 mmHg 57%
06:00 +14°C° 0 mm 0 mps 588 mmHg 51%
07:00 +17°C° 0 mm 0 mps 589 mmHg 44%
08:00 +19°C° 0 mm 0 mps 591 mmHg 38%
09:00 +23°C° 0 mm 1 mps 591 mmHg 34%
10:00 +24°C° 0 mm 3 mps 592 mmHg 30%
11:00 +25°C° 0 mm 4 mps 592 mmHg 27%
12:00 +26°C° 0 mm 4 mps 591 mmHg 26%
13:00 +26°C° 0 mm 4 mps 591 mmHg 26%
14:00 +26°C° 0 mm 4 mps 590 mmHg 26%
15:00 +26°C° 0 mm 4 mps 590 mmHg 30%
16:00 +25°C° 0 mm 4 mps 590 mmHg 34%
17:00 +23°C° 0 mm 4 mps 589 mmHg 38%
18:00 +21°C° 0 mm 3 mps 589 mmHg 40%
19:00 +19°C° 0 mm 2 mps 588 mmHg 42%
20:00 +18°C° 0 mm 2 mps 588 mmHg 45%
21:00 +17°C° 0 mm 2 mps 588 mmHg 47%
22:00 +16°C° 0 mm 1 mps 588 mmHg 50%
23:00 +16°C° 0 mm 1 mps 588 mmHg 53%

28 September, Monday

Time Temperature Precipitation Wind Pressure Humidity
00:00 +15°C° 0 mm 1 mps 587 mmHg 54%
01:00 +15°C° 0 mm 1 mps 587 mmHg 55%
02:00 +14°C° 0 mm 1 mps 586 mmHg 56%
03:00 +14°C° 0 mm 1 mps 586 mmHg 57%
04:00 +13°C° 0 mm 1 mps 586 mmHg 58%
05:00 +12°C° 0 mm 0 mps 586 mmHg 59%
06:00 +14°C° 0 mm 0 mps 587 mmHg 53%
07:00 +19°C° 0 mm 1 mps 589 mmHg 47%
08:00 +21°C° 0 mm 1 mps 590 mmHg 41%
09:00 +22°C° 0 mm 1 mps 590 mmHg 38%
10:00 +23°C° 0 mm 1 mps 591 mmHg 35%
11:00 +25°C° 0 mm 2 mps 591 mmHg 32%
12:00 +25°C° 0 mm 2 mps 590 mmHg 30%
13:00 +26°C° 0 mm 2 mps 590 mmHg 29%
14:00 +26°C° 0 mm 2 mps 590 mmHg 27%
15:00 +26°C° 0 mm 2 mps 589 mmHg 30%
16:00 +25°C° 0 mm 3 mps 589 mmHg 33%
17:00 +25°C° 0 mm 3 mps 589 mmHg 36%
18:00 +22°C° 0 mm 3 mps 589 mmHg 42%
19:00 +20°C° 0 mm 3 mps 589 mmHg 49%
20:00 +18°C° 0 mm 4 mps 589 mmHg 55%
21:00 +18°C° 0 mm 3 mps 588 mmHg 60%
22:00 +17°C° 0 mm 3 mps 588 mmHg 65%
23:00 +16°C° 0 mm 3 mps 588 mmHg 70%
Show more